[[{"header":{"parameterUnit":"m.s-1","parameterCategory":2,"la1":30.2991,"la2":30.254,"lo1":-89.0895,"lo2":-89.0444,"dy":0.0017,"dx":0.0017,"nx":28,"ny":28,"refTime":"2024-03-21T03:00:00:Z","depth":"0","parameterNumber":2,"parameterNumberName":"U-component_of_CURRENTS"},"data":[0,0,0,0,0,0,0,0,0,0,0,0,0,0,0,0,0,0,0,0,0,0,0,0,0,0,0,0,0,0,0,0,0,0,0,0,0,0,0,0,0,0,0,0,0,0,0,0,0,0,0,0,0,0,0,0,0,0,0.2923,0.2923,0,0.2886,0.2885,0.2885,0.2865,0.2866,0.2866,0.2866,0.2716,0.2712,0.2708,0,0,0,0,0,0,0,0,0,0,0,0,0,0.2945,0.2945,0.2923,0.2923,0.2923,0.2886,0.2885,0.2884,0.2865,0.2866,0.2866,0.2866,0.2718,0.2713,0.2708,0,0,0,0,0,0,0,0,0,0,0,0,0,0.2923,0.2945,0.2923,0.291,0.2909,0.2886,0.2885,0.2884,0.2865,0.2866,0.2866,0.2866,0.2719,0.2713,0.2707,0.2665,0,0,0.2688,0.2686,0,0,0,0,0,0,0,0,0.2924,0.2922,0.2912,0.2911,0.2909,0.2882,0.2838,0.2806,0.2865,0.288,0.2866,0.2866,0.2762,0.2753,0.2744,0.2658,0.2651,0.2688,0.2684,0.2681,0.268,0,0,0,0,0,0,0,0.2926,0.2923,0.2907,0.2912,0.291,0.2895,0.2892,0.2832,0.2817,0.2879,0.2878,0.2876,0.276,0.275,0.274,0.2649,0.2688,0.2682,0.2679,0.2676,0.2618,0.262,0,0,0,0,0,0,0.2936,0.2925,0.2908,0.2906,0.2919,0.2894,0.2891,0.2889,0.282,0.2811,0.2876,0.2875,0.2761,0.2747,0.2735,0.2754,0.2681,0.2676,0.2672,0.2616,0.2619,0.2621,0,0,0,0,0,0,0.2936,0.2934,0.291,0.2916,0.2912,0.2894,0.2892,0.2888,0.2886,0.282,0.2808,0.2879,0.276,0.2743,0.2714,0.2745,0.2673,0.2667,0.2613,0.2617,0.262,0.2744,0,0,0,0,0,0,0.2937,0.2935,0.2933,0.2917,0.2912,0.2906,0.2892,0.2888,0.2885,0.2884,0.2817,0.2804,0.2759,0.2724,0.2708,0.2735,0.2662,0.2611,0.2615,0.2619,0.2738,0.2752,0.2764,0,0,0,0,0,0.2938,0.2925,0.2934,0.2931,0.2912,0.2906,0.2902,0.2889,0.2885,0.2887,0.2861,0.2806,0.2739,0.272,0.2701,0.2727,0.2609,0.2614,0.2618,0.2732,0.2749,0.2763,0,0,0,0,0,0,0.2908,0.2922,0.293,0.2916,0.2922,0.2904,0.2895,0.2895,0.2876,0.2872,0.2817,0.2802,0.2798,0.2744,0.2725,0.2728,0.267,0.2672,0.2763,0.2778,0.2791,0.2769,0.2657,0,0,0,0,0,0.291,0.2917,0.2925,0.2912,0.2919,0.2914,0.2909,0.2907,0.289,0.2882,0.2845,0.2813,0.2801,0.2775,0.2747,0.2725,0.2696,0.2736,0.275,0.2761,0.2733,0.275,0.2762,0.2637,0.2637,0.2637,0,0,0.2891,0.29,0.29,0.2909,0.2909,0.2924,0.291,0.2908,0.2922,0.2864,0.2862,0.285,0.2809,0.2811,0.2803,0.2766,0.279,0.2767,0.2777,0.2742,0.2756,0.2768,0.2779,0.264,0.264,0.2639,0,0,0.2868,0.2873,0.2884,0.29,0.2917,0.292,0.2928,0.2929,0.2933,0.2933,0.2922,0.293,0.2878,0.2878,0.2866,0.2925,0.2867,0.2923,0.2952,0.2972,0.2981,0.2989,0.3003,0.3012,0.2919,0.292,0.292,0,0.2851,0.2866,0.2882,0.2904,0.2915,0.2927,0.2944,0.2952,0.2946,0.2943,0.2943,0.2932,0.2912,0.2926,0.2967,0.2952,0.2947,0.2898,0.2988,0.2995,0.3001,0.3013,0.302,0.2926,0.2925,0.2925,0.2924,0,0.2855,0.2868,0.2871,0.2918,0.2931,0.2941,0.297,0.2979,0.2989,0.2993,0.301,0.3009,0.2991,0.302,0.3008,0.3052,0.3032,0.3014,0.2947,0.3021,0.3029,0.3035,0.2936,0.2933,0.2931,0.293,0,0,0.2823,0.2868,0.2874,0.289,0.2941,0.2944,0.2979,0.3,0.3002,0.3028,0.3031,0.3072,0.3066,0.3055,0.3062,0.3092,0.317,0.3074,0.3072,0.3084,0.3211,0.317,0.3171,0.3171,0.3172,0.3173,0.3212,0,0.2827,0.2857,0.2889,0.2915,0.2931,0.2962,0.2985,0.3007,0.302,0.3025,0.3053,0.3058,0.3082,0.3084,0.3125,0.3142,0.3183,0.316,0.3137,0.3136,0.3087,0.3175,0.2931,0.2942,0.3217,0.3217,0.3218,0,0.2836,0.2853,0.2876,0.2905,0.2916,0.2932,0.2954,0.2979,0.3002,0.3011,0.303,0.3038,0.3085,0.3099,0.3166,0.3149,0.3187,0.3214,0.3216,0.3121,0.3103,0.2905,0.294,0.2744,0.3225,0.3225,0.3224,0,0.2805,0.2844,0.2854,0.287,0.2909,0.2912,0.2932,0.2959,0.2977,0.2992,0.3001,0.3036,0.306,0.3108,0.3181,0.3168,0.3258,0.3237,0.324,0.3238,0.2991,0.2965,0.2817,0.3295,0.3295,0.3295,0.3295,0,0.2799,0.2801,0.2829,0.2836,0.2838,0.2875,0.2881,0.2901,0.2931,0.2952,0.2984,0.301,0.3068,0.3128,0.3179,0.3231,0.3258,0.3248,0.3247,0.3033,0.3012,0.2795,0.2769,0.3297,0.3296,0.3296,0.3296,0,0.2756,0.2779,0.2791,0.2821,0.2822,0.2822,0.2857,0.2863,0.2895,0.2925,0.2933,0.2996,0.3071,0.3144,0.3227,0.3224,0.3147,0.3297,0.3047,0.3015,0.2792,0.2784,0.2635,0.2584,0.3261,0.3261,0.326,0,0.2731,0.2734,0.2772,0.2781,0.2788,0.2794,0.2801,0.2835,0.2852,0.2924,0.2938,0.3017,0.3074,0.3171,0.3163,0.3214,0.314,0.302,0.2949,0.2746,0.2736,0.2679,0.2644,0.2684,0.2678,0.2674,0.2671,0,0.2689,0.271,0.2729,0.2751,0.2755,0.2765,0.2777,0.2786,0.2839,0.2863,0.2924,0.2972,0.3041,0.2961,0.3014,0.301,0.2782,0.2934,0.2762,0.2307,0.219,0.2149,0.2707,0.2632,0.2636,0.2639,0.2641,0.2642,0.2659,0.2669,0.2707,0.2713,0.2727,0.273,0.2692,0.2728,0.2741,0.2729,0.2846,0.2827,0.2728,0.2748,0.2726,0.2416,0.2586,0.2247,0.227,0.2243,0.2128,0.2622,0.253,0.2533,0.2535,0.2538,0.254,0,0.2606,0.2635,0.2664,0.2667,0.2642,0.2669,0.2662,0.2593,0.2564,0.2602,0.2613,0.2449,0.2283,0.2176,0.1875,0.1712,0.1655,0.1622,0.1415,0.1436,0.1854,0.1756,0.144,0.144,0.144,0.1441,0.1441,0.1441,0.2587,0.2585,0.2599,0.2556,0.2552,0.2456,0.2419,0.2347,0.2327,0.2188,0.2071,0.2041,0.1823,0.1417,0.1075,0.1052,0.0955,0.0887,0.1022,0.1195,0.1251,0.1305,0.1198,0.077,0.077,0.0436,0.0433,0.0431]},{"header":{"parameterUnit":"m.s-1","parameterCategory":2,"la1":30.2991,"la2":30.254,"lo1":-89.0895,"lo2":-89.0444,"dy":0.0017,"dx":0.0017,"nx":28,"ny":28,"refTime":"2024-03-21T03:00:00:Z","depth":"0","parameterNumber":3,"parameterNumberName":"V-component_of_CURRENTS"},"data":[0,0,0,0,0,0,0,0,0,0,0,0,0,0,0,0,0,0,0,0,0,0,0,0,0,0,0,0,0,0,0,0,0,0,0,0,0,0,0,0,0,0,0,0,0,0,0,0,0,0,0,0,0,0,0,0,0,0,-0.0931,-0.0931,0,-0.0884,-0.0884,-0.0883,-0.085,-0.0849,-0.0849,-0.0849,-0.0804,-0.0803,-0.0802,0,0,0,0,0,0,0,0,0,0,0,0,0,-0.0901,-0.0902,-0.0931,-0.0931,-0.093,-0.0884,-0.0884,-0.0883,-0.085,-0.0849,-0.0849,-0.0848,-0.0804,-0.0803,-0.0802,0,0,0,0,0,0,0,0,0,0,0,0,0,-0.0891,-0.0903,-0.0931,-0.0907,-0.0905,-0.0884,-0.0884,-0.0883,-0.085,-0.0849,-0.0849,-0.0848,-0.0805,-0.0803,-0.0802,-0.0804,0,0,-0.0798,-0.0798,0,0,0,0,0,0,0,0,-0.0892,-0.0892,-0.0911,-0.0909,-0.0906,-0.0872,-0.0856,-0.0856,-0.085,-0.0871,-0.0849,-0.0848,-0.0827,-0.0824,-0.0817,-0.0802,-0.08,-0.0798,-0.0797,-0.0797,-0.0796,0,0,0,0,0,0,0,-0.0892,-0.0893,-0.0913,-0.0911,-0.0907,-0.0867,-0.0866,-0.0856,-0.0853,-0.0869,-0.0867,-0.086,-0.0825,-0.0818,-0.0816,-0.0799,-0.0798,-0.0797,-0.0796,-0.0796,-0.0794,-0.0794,0,0,0,0,0,0,-0.0903,-0.0895,-0.0915,-0.0912,-0.0896,-0.0869,-0.0867,-0.0884,-0.0853,-0.0848,-0.0861,-0.0859,-0.0821,-0.0817,-0.0814,-0.0817,-0.0797,-0.0795,-0.0795,-0.0793,-0.0794,-0.0795,0,0,0,0,0,0,-0.0903,-0.0906,-0.0917,-0.09,-0.0898,-0.087,-0.0888,-0.0883,-0.0878,-0.0846,-0.0841,-0.0861,-0.082,-0.0816,-0.0809,-0.0815,-0.0795,-0.0794,-0.0792,-0.0793,-0.0794,-0.0822,0,0,0,0,0,0,-0.0902,-0.0907,-0.0924,-0.0902,-0.09,-0.0911,-0.0888,-0.0882,-0.0874,-0.0871,-0.0845,-0.084,-0.0819,-0.0811,-0.0807,-0.0813,-0.0793,-0.0791,-0.0793,-0.0794,-0.082,-0.0824,-0.0827,0,0,0,0,0,-0.0902,-0.0923,-0.0926,-0.0928,-0.0926,-0.0911,-0.0907,-0.0884,-0.0875,-0.0877,-0.0859,-0.0841,-0.0817,-0.081,-0.0806,-0.0811,-0.0791,-0.0792,-0.0794,-0.0819,-0.0823,-0.0827,0,0,0,0,0,0,-0.0908,-0.0921,-0.0924,-0.0947,-0.0935,-0.0905,-0.0905,-0.089,-0.0878,-0.0877,-0.0848,-0.0842,-0.0838,-0.0826,-0.0819,-0.0817,-0.0802,-0.0803,-0.0823,-0.0827,-0.083,-0.0825,-0.0792,0,0,0,0,0,-0.0923,-0.0948,-0.0942,-0.0957,-0.0958,-0.0935,-0.0928,-0.0914,-0.0897,-0.0891,-0.0869,-0.0853,-0.0842,-0.0835,-0.0823,-0.0822,-0.0789,-0.0825,-0.0829,-0.0832,-0.0826,-0.0791,-0.0791,-0.08,-0.08,-0.08,0,0,-0.092,-0.0937,-0.0944,-0.096,-0.0952,-0.0952,-0.093,-0.0925,-0.0918,-0.0889,-0.0878,-0.0865,-0.0846,-0.0841,-0.0839,-0.0831,-0.081,-0.0834,-0.0836,-0.0829,-0.0793,-0.0792,-0.0791,-0.0801,-0.0801,-0.0801,0,0,-0.0928,-0.0954,-0.0975,-0.0977,-0.0979,-0.0966,-0.0969,-0.095,-0.0939,-0.0929,-0.0908,-0.0897,-0.0879,-0.0863,-0.0854,-0.0872,-0.083,-0.0875,-0.0885,-0.0852,-0.0851,-0.0849,-0.0794,-0.0788,-0.0876,-0.0876,-0.0876,0,-0.0924,-0.096,-0.0972,-0.0992,-0.0989,-0.0977,-0.0981,-0.0972,-0.0948,-0.0935,-0.0931,-0.0898,-0.0887,-0.0872,-0.0881,-0.0878,-0.0845,-0.0869,-0.0855,-0.0853,-0.085,-0.0795,-0.0787,-0.0878,-0.0878,-0.0878,-0.0877,0,-0.0943,-0.0972,-0.0983,-0.1011,-0.1008,-0.1012,-0.1002,-0.0995,-0.0981,-0.0963,-0.0946,-0.0928,-0.0902,-0.0907,-0.0899,-0.0883,-0.086,-0.0862,-0.084,-0.0851,-0.0792,-0.0783,-0.088,-0.088,-0.0879,-0.0879,0,0,-0.0938,-0.0986,-0.0991,-0.1003,-0.1021,-0.1012,-0.1014,-0.0999,-0.0979,-0.0973,-0.094,-0.0941,-0.0924,-0.0914,-0.0904,-0.0885,-0.0843,-0.0871,-0.0869,-0.0809,-0.075,-0.0679,-0.0662,-0.0843,-0.0842,-0.0841,-0.0711,0,-0.0948,-0.0985,-0.1004,-0.1017,-0.1032,-0.1026,-0.1018,-0.1003,-0.0982,-0.0949,-0.0939,-0.0908,-0.093,-0.0908,-0.0899,-0.0851,-0.0823,-0.0877,-0.0755,-0.0751,-0.068,-0.0651,-0.0576,-0.0449,-0.0702,-0.07,-0.0699,0,-0.0976,-0.0991,-0.1011,-0.1023,-0.1025,-0.1021,-0.0993,-0.0983,-0.0948,-0.0928,-0.0909,-0.0888,-0.0861,-0.0874,-0.0807,-0.0839,-0.0799,-0.0767,-0.0762,-0.0678,-0.0663,-0.0483,-0.0423,-0.0451,-0.0685,-0.0686,-0.0687,0,-0.0977,-0.1005,-0.1015,-0.1021,-0.1023,-0.1012,-0.1001,-0.0973,-0.0935,-0.0903,-0.0857,-0.0846,-0.0796,-0.0776,-0.072,-0.0757,-0.0625,-0.0663,-0.0559,-0.0553,-0.0455,-0.0441,-0.0399,-0.0608,-0.0609,-0.0609,-0.0609,0,-0.1,-0.1007,-0.1012,-0.1013,-0.0989,-0.1001,-0.0958,-0.0944,-0.0893,-0.0819,-0.0838,-0.0762,-0.0767,-0.0695,-0.0684,-0.0572,-0.0591,-0.0539,-0.0511,-0.0462,-0.0451,-0.0444,-0.0482,-0.0604,-0.0605,-0.0606,-0.0607,0,-0.1001,-0.1021,-0.1018,-0.1006,-0.0994,-0.0971,-0.0914,-0.0857,-0.084,-0.0737,-0.0716,-0.0666,-0.0572,-0.0557,-0.0484,-0.0481,-0.0387,-0.037,-0.0301,-0.0267,-0.0221,-0.0263,-0.0145,-0.0143,-0.024,-0.0237,-0.0235,0,-0.1,-0.1005,-0.0988,-0.0952,-0.0938,-0.09,-0.0842,-0.0824,-0.075,-0.0654,-0.0578,-0.0486,-0.0374,-0.0254,-0.023,-0.0167,-0.024,-0.0087,-0.0157,-0.0184,-0.0211,-0.0243,-0.0254,-0.0032,-0.0028,-0.0025,-0.0023,0,-0.0956,-0.0957,-0.093,-0.0863,-0.0806,-0.0748,-0.0676,-0.062,-0.056,-0.047,-0.0323,-0.0235,-0.0121,-0.0002,0.0051,0.0058,-0.0081,-0.0023,-0.0069,-0.0049,-0.0061,-0.0056,-0.015,0.0004,0.0001,-0.0001,-0.0002,-0.0003,-0.0877,-0.0845,-0.0795,-0.0723,-0.0664,-0.0569,-0.0504,-0.0411,-0.0286,-0.0126,-0.0093,0.0098,0.0175,0.0273,0.0237,0.0215,0.0154,0.0193,0.0148,0.012,0.0111,0.0087,0.0274,0.0273,0.0272,0.0271,0.027,0,-0.0716,-0.0691,-0.0637,-0.0544,-0.0454,-0.0464,-0.035,-0.0265,-0.0096,0.007,0.0214,0.0449,0.0531,0.0497,0.0472,0.0402,0.0324,0.0337,0.0283,0.0261,0.0245,0.0238,0.0447,0.0447,0.0447,0.0447,0.0447,0.0447,-0.0613,-0.0521,-0.0507,-0.0339,-0.0292,-0.0177,-0.0116,0.0005,0.0131,0.0391,0.0581,0.0699,0.0736,0.0615,0.0506,0.0453,0.0347,0.038,0.029,0.0236,0.0217,0.0199,0.0183,0.0377,0.0377,0.0338,0.0337,0.0337]}],[{"header":{"parameterUnit":"m.s-1","parameterCategory":2,"la1":30.2991,"la2":30.254,"lo1":-89.0895,"lo2":-89.0444,"dy":0.0017,"dx":0.0017,"nx":28,"ny":28,"refTime":"2024-03-21T03:00:00:Z","depth":"2","parameterNumber":2,"parameterNumberName":"U-component_of_CURRENTS"},"data":[0,0,0,0,0,0,0,0,0,0,0,0,0,0,0,0,0,0,0,0,0,0,0,0,0,0,0,0,0,0,0,0,0,0,0,0,0,0,0,0,0,0,0,0,0,0,0,0,0,0,0,0,0,0,0,0,0,0,0.1351,0.1351,0,0.1294,0.1293,0.1292,0.1284,0.1285,0.1286,0.1287,0.1323,0.1323,0.1323,0,0,0,0,0,0,0,0,0,0,0,0,0,0.1432,0.143,0.1352,0.1351,0.1351,0.1294,0.1293,0.1291,0.1284,0.1285,0.1286,0.1287,0.1323,0.1323,0.1323,0,0,0,0,0,0,0,0,0,0,0,0,0,0.1382,0.143,0.1352,0.1345,0.1344,0.1294,0.1293,0.1291,0.1283,0.1285,0.1287,0.1288,0.1323,0.1323,0.1323,0.129,0,0,0.1323,0.1323,0,0,0,0,0,0,0,0,0.1385,0.1379,0.1346,0.1345,0.1344,0.1303,0.1335,0.1297,0.1283,0.13,0.1287,0.1289,0.1328,0.1328,0.1303,0.1292,0.1293,0.1323,0.1323,0.1323,0.1323,0,0,0,0,0,0,0,0.1389,0.1381,0.1323,0.1346,0.1345,0.1337,0.1332,0.1327,0.1303,0.1299,0.1299,0.1302,0.1328,0.1303,0.1304,0.1294,0.1323,0.1323,0.1323,0.1323,0.1437,0.144,0,0,0,0,0,0,0.1407,0.1384,0.1325,0.1322,0.1376,0.1335,0.1328,0.131,0.1301,0.1302,0.1301,0.1302,0.1302,0.1304,0.1306,0.14,0.1323,0.1323,0.1323,0.1434,0.1438,0.1441,0,0,0,0,0,0,0.1408,0.1401,0.1327,0.1358,0.1349,0.1333,0.1311,0.1308,0.1323,0.1302,0.1304,0.1325,0.1304,0.1306,0.1363,0.1397,0.1323,0.1323,0.143,0.1435,0.1439,0.1504,0,0,0,0,0,0,0.141,0.1401,0.1395,0.1358,0.1348,0.1344,0.131,0.1306,0.1322,0.1324,0.1323,0.1325,0.1305,0.1364,0.1363,0.1396,0.1323,0.1426,0.1432,0.1438,0.1498,0.151,0.1521,0,0,0,0,0,0.1413,0.1403,0.1394,0.1388,0.1338,0.1346,0.1341,0.133,0.1323,0.1345,0.1357,0.1327,0.14,0.1366,0.1365,0.1398,0.1424,0.1431,0.1437,0.1493,0.1508,0.1521,0,0,0,0,0,0,0.1437,0.14,0.139,0.137,0.1381,0.1349,0.1362,0.1352,0.1369,0.1385,0.1359,0.1363,0.1429,0.1414,0.1377,0.1455,0.1409,0.1416,0.1453,0.1466,0.1477,0.1481,0.1323,0,0,0,0,0,0.1438,0.1422,0.1405,0.1398,0.1408,0.139,0.1391,0.1395,0.1402,0.141,0.1407,0.1421,0.1446,0.146,0.1478,0.1509,0.1501,0.1537,0.1548,0.1557,0.1564,0.157,0.1581,0.1464,0.1463,0.1463,0,0,0.1452,0.1426,0.1422,0.1404,0.1406,0.1412,0.1395,0.1426,0.1437,0.1414,0.1443,0.1465,0.1469,0.1516,0.1542,0.1511,0.1597,0.1566,0.1573,0.1576,0.1578,0.1589,0.1598,0.1468,0.1467,0.1467,0,0,0.146,0.1451,0.1439,0.1453,0.147,0.1461,0.1484,0.1483,0.1498,0.1533,0.153,0.1584,0.1595,0.161,0.1616,0.1704,0.1664,0.1714,0.1758,0.1764,0.1772,0.178,0.1815,0.1825,0.1709,0.1709,0.1709,0,0.1475,0.1445,0.1448,0.1449,0.1464,0.1489,0.1502,0.1516,0.1537,0.1559,0.1568,0.1624,0.1637,0.1685,0.1727,0.1726,0.1729,0.1697,0.1775,0.1781,0.1788,0.1822,0.1831,0.1713,0.1712,0.1712,0.1712,0,0.1471,0.1461,0.1473,0.1466,0.1492,0.1524,0.1551,0.159,0.1615,0.1621,0.1701,0.1729,0.1764,0.1782,0.178,0.1841,0.1832,0.1791,0.1728,0.1802,0.1835,0.1844,0.1719,0.1717,0.1716,0.1715,0,0,0.1467,0.146,0.1468,0.1474,0.1511,0.1535,0.1582,0.1622,0.1661,0.1708,0.1755,0.1822,0.1854,0.1867,0.1882,0.1894,0.1962,0.1869,0.1867,0.1884,0.1998,0.1887,0.1886,0.1921,0.1922,0.1923,0.2013,0,0.1463,0.1457,0.1456,0.1488,0.1503,0.1551,0.1588,0.1645,0.1697,0.1757,0.1816,0.1876,0.1878,0.1922,0.194,0.1953,0.1984,0.1944,0.194,0.1941,0.1815,0.1891,0.1694,0.1747,0.2021,0.2023,0.2024,0,0.146,0.1454,0.1475,0.1502,0.1517,0.1545,0.1636,0.1673,0.1765,0.1814,0.1888,0.1932,0.2005,0.1988,0.2043,0.2013,0.2028,0.2029,0.203,0.1904,0.1845,0.1713,0.1752,0.2038,0.2037,0.2036,0.2035,0,0.1478,0.1472,0.1491,0.1508,0.1546,0.1582,0.1611,0.17,0.1756,0.1864,0.1922,0.1995,0.2043,0.2069,0.2086,0.2074,0.2121,0.2095,0.2018,0.2012,0.1832,0.1806,0.2141,0.2141,0.214,0.214,0.214,0,0.1481,0.1502,0.1504,0.1531,0.1578,0.1601,0.1676,0.173,0.1818,0.1891,0.196,0.2022,0.206,0.2091,0.2109,0.2084,0.214,0.2046,0.2023,0.1854,0.183,0.206,0.2049,0.2143,0.2143,0.2142,0.2141,0,0.1527,0.1518,0.1557,0.1587,0.1598,0.1652,0.171,0.1765,0.1838,0.194,0.1983,0.2052,0.2081,0.2107,0.2136,0.2091,0.2093,0.2072,0.1886,0.1837,0.1991,0.1983,0.202,0.2017,0.2014,0.2012,0.201,0,0.1552,0.1577,0.1619,0.164,0.166,0.171,0.1749,0.1803,0.1845,0.195,0.1992,0.205,0.2046,0.2034,0.1981,0.1974,0.2053,0.1784,0.1716,0.2003,0.1977,0.1974,0.197,0.1537,0.1532,0.1527,0.1523,0,0.1604,0.1632,0.1642,0.1689,0.1729,0.1758,0.179,0.1813,0.1877,0.1904,0.1925,0.1921,0.1924,0.1767,0.173,0.171,0.1763,0.1687,0.203,0.1577,0.1547,0.1522,0.1535,0.1482,0.1486,0.1489,0.1491,0.1493,0.1643,0.1669,0.1673,0.1695,0.1738,0.1741,0.1705,0.1719,0.1705,0.1662,0.1755,0.1645,0.1644,0.1445,0.1405,0.1382,0.1527,0.1442,0.1457,0.1477,0.1383,0.1347,0.1231,0.1233,0.1235,0.1237,0.1239,0,0.1616,0.1625,0.1666,0.1638,0.1613,0.169,0.1674,0.1581,0.1473,0.1467,0.1402,0.1203,0.1068,0.1113,0.0995,0.0985,0.0992,0.0953,0.0944,0.0984,0.102,0.0904,0.0625,0.0623,0.0622,0.062,0,0,0.1607,0.1574,0.1569,0.1468,0.1479,0.1416,0.1388,0.127,0.1198,0.1016,0.0916,0.0938,0.1007,0.0775,0.0758,0.0668,0.0823,0.0634,0.112,0.1145,0.1179,0.1288,0.1151,0,0,0,0,0]},{"header":{"parameterUnit":"m.s-1","parameterCategory":2,"la1":30.2991,"la2":30.254,"lo1":-89.0895,"lo2":-89.0444,"dy":0.0017,"dx":0.0017,"nx":28,"ny":28,"refTime":"2024-03-21T03:00:00:Z","depth":"2","parameterNumber":3,"parameterNumberName":"V-component_of_CURRENTS"},"data":[0,0,0,0,0,0,0,0,0,0,0,0,0,0,0,0,0,0,0,0,0,0,0,0,0,0,0,0,0,0,0,0,0,0,0,0,0,0,0,0,0,0,0,0,0,0,0,0,0,0,0,0,0,0,0,0,0,0,0.0271,0.0271,0,0.0266,0.0266,0.0265,0.0245,0.0244,0.0244,0.0244,0.0163,0.0161,0.0159,0,0,0,0,0,0,0,0,0,0,0,0,0,0.0279,0.0278,0.0271,0.0271,0.0271,0.0266,0.0266,0.0265,0.0245,0.0244,0.0244,0.0244,0.0163,0.0161,0.0159,0,0,0,0,0,0,0,0,0,0,0,0,0,0.0272,0.0278,0.0271,0.0262,0.0262,0.0266,0.0266,0.0265,0.0245,0.0244,0.0244,0.0244,0.0164,0.0161,0.0158,0.0147,0,0,0.015,0.0148,0,0,0,0,0,0,0,0,0.0272,0.0271,0.0263,0.0263,0.0262,0.0258,0.0239,0.0223,0.0245,0.0248,0.0244,0.0244,0.019,0.0185,0.0182,0.0144,0.014,0.0149,0.0147,0.0146,0.0145,0,0,0,0,0,0,0,0.0273,0.0272,0.0266,0.0264,0.0263,0.0265,0.0263,0.0236,0.0217,0.0248,0.0247,0.0251,0.0188,0.0185,0.0179,0.0139,0.0149,0.0147,0.0145,0.0144,0.0081,0.0081,0,0,0,0,0,0,0.0278,0.0272,0.0266,0.0266,0.027,0.0265,0.0263,0.0258,0.0219,0.0215,0.0251,0.025,0.019,0.0183,0.0176,0.0166,0.0146,0.0144,0.0142,0.0081,0.0081,0.0081,0,0,0,0,0,0,0.0278,0.0278,0.0267,0.0272,0.0271,0.0265,0.026,0.0258,0.0251,0.0223,0.0216,0.0247,0.0189,0.018,0.014,0.0162,0.0142,0.014,0.0081,0.0081,0.0081,0.0141,0,0,0,0,0,0,0.0278,0.0277,0.0273,0.0272,0.0271,0.0271,0.026,0.0258,0.0256,0.0254,0.0217,0.0209,0.0188,0.0144,0.0137,0.0158,0.0137,0.0081,0.0081,0.0081,0.0139,0.0144,0.0147,0,0,0,0,0,0.0279,0.0283,0.0272,0.0272,0.0265,0.0272,0.0271,0.0265,0.0256,0.0256,0.022,0.021,0.0141,0.0141,0.0132,0.0154,0.0081,0.0081,0.0081,0.0137,0.0143,0.0147,0,0,0,0,0,0,0.0278,0.0281,0.0269,0.0271,0.027,0.0269,0.0269,0.0265,0.0239,0.0228,0.0199,0.0189,0.0168,0.0144,0.0145,0.0135,0.0114,0.0113,0.016,0.0165,0.0169,0.0223,0.0135,0,0,0,0,0,0.0277,0.0286,0.0279,0.0282,0.0276,0.0269,0.027,0.0265,0.0247,0.0237,0.0209,0.018,0.0164,0.0149,0.0125,0.0109,0.0107,0.0119,0.0123,0.0127,0.0165,0.0178,0.0188,0.0082,0.0082,0.0082,0,0,0.0279,0.0283,0.0286,0.0284,0.0276,0.0282,0.0268,0.0268,0.028,0.023,0.0219,0.0188,0.0161,0.0149,0.0139,0.013,0.0147,0.0127,0.0131,0.0167,0.018,0.019,0.02,0.0082,0.0082,0.0082,0,0,0.0298,0.0284,0.0295,0.0294,0.0291,0.029,0.029,0.0279,0.0277,0.0259,0.0236,0.0225,0.0176,0.0183,0.0177,0.0189,0.0167,0.0167,0.0233,0.0244,0.0254,0.0263,0.0241,0.0247,0.017,0.017,0.017,0,0.0296,0.0311,0.03,0.0309,0.0317,0.0295,0.031,0.0307,0.0287,0.0302,0.0259,0.0244,0.021,0.0243,0.0242,0.0206,0.0188,0.0217,0.0253,0.0262,0.027,0.0245,0.0252,0.0173,0.0172,0.0172,0.0172,0,0.0326,0.0332,0.0337,0.0345,0.035,0.0358,0.0355,0.0356,0.0342,0.0352,0.0365,0.032,0.0325,0.0305,0.0272,0.032,0.0278,0.0257,0.0249,0.0285,0.0255,0.0261,0.0177,0.0176,0.0175,0.0174,0,0,0.0321,0.0355,0.0352,0.0376,0.0371,0.039,0.0404,0.0435,0.047,0.0444,0.0497,0.0467,0.0457,0.0451,0.0414,0.0421,0.0436,0.0362,0.0361,0.0355,0.0433,0.0402,0.0404,0.0413,0.0415,0.0417,0.0377,0,0.0341,0.0399,0.0394,0.0438,0.0467,0.0456,0.048,0.0507,0.0514,0.0552,0.055,0.0565,0.0508,0.0501,0.0509,0.046,0.0459,0.0448,0.0388,0.0387,0.0368,0.0414,0.0414,0.038,0.0382,0.0383,0.0384,0,0.0356,0.0405,0.0462,0.052,0.0525,0.0539,0.0596,0.0612,0.0659,0.0663,0.0695,0.0685,0.0708,0.0639,0.0614,0.0602,0.0534,0.0488,0.0485,0.0453,0.0369,0.0349,0.039,0.0393,0.0392,0.0392,0.0391,0,0.0394,0.0445,0.0509,0.0522,0.0574,0.0595,0.0613,0.0653,0.0681,0.0736,0.0768,0.0792,0.079,0.0748,0.0651,0.0629,0.0607,0.0563,0.0475,0.0469,0.0464,0.0455,0.0558,0.0558,0.0558,0.0558,0.0558,0,0.0429,0.0474,0.0533,0.0567,0.0634,0.0642,0.0694,0.072,0.0759,0.0816,0.0825,0.0865,0.0815,0.0793,0.0701,0.0612,0.0644,0.0516,0.0479,0.0477,0.0471,0.0483,0.0475,0.0556,0.0557,0.0557,0.0557,0,0.0466,0.0498,0.0575,0.0641,0.0652,0.0701,0.0727,0.0763,0.0797,0.0871,0.089,0.092,0.0888,0.0825,0.0742,0.0665,0.0584,0.0534,0.0519,0.0483,0.0421,0.0416,0.0456,0.0455,0.0454,0.0453,0.0453,0,0.0499,0.0542,0.0627,0.0651,0.0672,0.0722,0.0738,0.0774,0.0818,0.0899,0.0948,0.0949,0.0961,0.0841,0.0714,0.0583,0.0556,0.048,0.0461,0.0462,0.0421,0.0417,0.0413,0.045,0.0449,0.0449,0.0449,0,0.0556,0.0577,0.0643,0.0688,0.0714,0.0762,0.0803,0.0846,0.0896,0.0979,0.1049,0.1062,0.0961,0.0844,0.067,0.0575,0.0511,0.0465,0.0498,0.0477,0.0454,0.0414,0.0411,0.0445,0.0445,0.0445,0.0446,0.0446,0.0586,0.0618,0.0666,0.0715,0.0752,0.0789,0.0822,0.088,0.0966,0.1057,0.1086,0.1083,0.0978,0.074,0.0608,0.0456,0.0473,0.0407,0.0409,0.0412,0.0421,0.0398,0.0377,0.0377,0.0377,0.0377,0.0377,0,0.0597,0.0611,0.0663,0.0725,0.0772,0.0772,0.0848,0.0881,0.0978,0.1043,0.1097,0.0969,0.0863,0.0712,0.0494,0.0387,0.038,0.0332,0.0355,0.036,0.0365,0.0372,0.0314,0.0314,0.0313,0.0313,0,0,0.0584,0.0617,0.0635,0.0713,0.0741,0.0777,0.0805,0.0878,0.0937,0.098,0.0971,0.0989,0.0856,0.0682,0.0553,0.0423,0.0407,0.0389,0.0454,0.0503,0.0508,0.0426,0.0445,0,0,0,0,0]}],[{"header":{"parameterUnit":"m.s-1","parameterCategory":2,"la1":30.2991,"la2":30.254,"lo1":-89.0895,"lo2":-89.0444,"dy":0.0017,"dx":0.0017,"nx":28,"ny":28,"refTime":"2024-03-21T03:00:00:Z","depth":"4","parameterNumber":2,"parameterNumberName":"U-component_of_CURRENTS"},"data":[0,0,0,0,0,0,0,0,0,0,0,0,0,0,0,0,0,0,0,0,0,0,0,0,0,0,0,0,0,0,0,0,0,0,0,0,0,0,0,0,0,0,0,0,0,0,0,0,0,0,0,0,0,0,0,0,0,0,0.0253,0.0252,0,0.0269,0.027,0.027,0.0336,0.0338,0.0339,0.034,0.0405,0.0406,0.0406,0,0,0,0,0,0,0,0,0,0,0,0,0,0.0259,0.0259,0.0253,0.0252,0.0252,0.0269,0.027,0.027,0.0336,0.0338,0.0339,0.034,0.0405,0.0405,0.0406,0,0,0,0,0,0,0,0,0,0,0,0,0,0.0267,0.0259,0.0253,0.0284,0.0287,0.0269,0.027,0.027,0.0336,0.0338,0.0339,0.0341,0.0404,0.0405,0.0406,0.0377,0,0,0.0409,0.041,0,0,0,0,0,0,0,0,0.0267,0.0268,0.028,0.0282,0.0285,0.0299,0.0296,0.0307,0.0335,0.0321,0.034,0.0342,0.037,0.0374,0.0378,0.038,0.0383,0.0409,0.041,0.041,0.0411,0,0,0,0,0,0,0,0.0266,0.0267,0.0263,0.0279,0.0283,0.0291,0.0295,0.0298,0.034,0.0323,0.0327,0.0322,0.0373,0.0377,0.038,0.0384,0.0409,0.041,0.0411,0.0411,0.0461,0.0462,0,0,0,0,0,0,0.0255,0.0266,0.0262,0.0263,0.0276,0.0289,0.0294,0.0296,0.0339,0.0345,0.032,0.0325,0.0374,0.0379,0.0383,0.0426,0.041,0.0411,0.0412,0.046,0.0461,0.0462,0,0,0,0,0,0,0.0256,0.0255,0.0262,0.0262,0.0263,0.0287,0.0289,0.0295,0.0314,0.0335,0.0345,0.0334,0.0376,0.0381,0.0402,0.0427,0.0412,0.0413,0.046,0.0461,0.0462,0.0465,0,0,0,0,0,0,0.0256,0.0255,0.0265,0.0261,0.0262,0.0259,0.0287,0.0294,0.0305,0.0312,0.0349,0.0356,0.0378,0.04,0.0403,0.0428,0.0413,0.0459,0.046,0.0461,0.0464,0.0466,0.0468,0,0,0,0,0,0.0256,0.026,0.0266,0.0266,0.0272,0.0258,0.026,0.0285,0.0304,0.0309,0.0339,0.0356,0.0412,0.0401,0.0404,0.043,0.0458,0.046,0.0461,0.0463,0.0466,0.0468,0,0,0,0,0,0,0.0269,0.0267,0.0273,0.0278,0.027,0.0268,0.0279,0.0284,0.0309,0.0325,0.0351,0.0359,0.0392,0.0403,0.039,0.045,0.0443,0.0445,0.0444,0.0446,0.0448,0.047,0.0414,0,0,0,0,0,0.0272,0.028,0.0268,0.0272,0.027,0.0273,0.0275,0.0284,0.0296,0.031,0.0336,0.0369,0.0397,0.0414,0.0437,0.0454,0.048,0.0478,0.048,0.0481,0.0502,0.0555,0.0564,0.0468,0.0468,0.0468,0,0,0.0276,0.0277,0.0281,0.0275,0.0279,0.0276,0.0281,0.0282,0.029,0.0311,0.0346,0.0371,0.0401,0.0435,0.0452,0.045,0.0519,0.0484,0.0485,0.0505,0.0558,0.0568,0.0576,0.0469,0.0469,0.0468,0,0,0.0283,0.029,0.0299,0.029,0.0286,0.0284,0.0283,0.0284,0.0302,0.0318,0.0349,0.0386,0.0418,0.0453,0.0473,0.0494,0.0525,0.0506,0.0537,0.0588,0.0596,0.0604,0.0633,0.0643,0.051,0.051,0.051,0,0.0297,0.0298,0.0297,0.0296,0.0292,0.0288,0.0287,0.0295,0.0306,0.0333,0.0336,0.0417,0.0432,0.0489,0.0506,0.05,0.0531,0.0522,0.0591,0.06,0.0608,0.0635,0.0647,0.0511,0.0511,0.0511,0.0511,0,0.0299,0.0305,0.0307,0.0311,0.0305,0.03,0.0298,0.0317,0.0337,0.0357,0.0416,0.044,0.0499,0.0505,0.0514,0.0585,0.0587,0.0583,0.0584,0.0618,0.0644,0.0656,0.0511,0.0511,0.0511,0.0511,0,0,0.031,0.0314,0.0312,0.0323,0.031,0.0309,0.0326,0.0349,0.039,0.0414,0.0472,0.0516,0.0548,0.0573,0.0588,0.0631,0.0698,0.064,0.0642,0.0667,0.0809,0.0722,0.0727,0.0715,0.0717,0.0719,0.0798,0,0.0315,0.0326,0.0317,0.0327,0.0333,0.0335,0.0354,0.0379,0.0414,0.0472,0.0512,0.0572,0.0566,0.0606,0.0646,0.0697,0.0735,0.0677,0.0775,0.0778,0.0696,0.074,0.0727,0.0807,0.081,0.0812,0.0813,0,0.0307,0.0322,0.0331,0.0354,0.0358,0.037,0.0418,0.0434,0.0504,0.0537,0.0605,0.0639,0.0714,0.0694,0.08,0.0771,0.0798,0.0822,0.0825,0.0758,0.0714,0.0772,0.0835,0.0834,0.0832,0.083,0.0829,0,0.0302,0.0324,0.0339,0.034,0.0365,0.0394,0.0421,0.0476,0.0507,0.0598,0.0645,0.0724,0.0784,0.0836,0.0876,0.086,0.0979,0.0956,0.0898,0.0891,0.0943,0.0934,0.1029,0.1029,0.1029,0.1029,0.1029,0,0.0286,0.0298,0.0355,0.0357,0.0404,0.042,0.0478,0.0518,0.0584,0.0632,0.0693,0.0743,0.083,0.0893,0.0913,0.0943,0.1011,0.0921,0.0916,0.0939,0.0928,0.0951,0.0941,0.1032,0.1031,0.1031,0.103,0,0.0254,0.0278,0.0306,0.0367,0.0396,0.0432,0.0502,0.0545,0.0614,0.0679,0.0712,0.08,0.0882,0.0934,0.1024,0.0991,0.1022,0.1008,0.1028,0.102,0.089,0.0879,0.0966,0.0964,0.0962,0.096,0.0959,0,0.0235,0.0251,0.0319,0.0344,0.0375,0.0442,0.0481,0.0553,0.0591,0.0695,0.072,0.0828,0.0874,0.0934,0.099,0.1024,0.1002,0.1007,0.095,0.0903,0.0889,0.0881,0.0873,0.0956,0.0955,0.0955,0.0954,0,0.0218,0.0244,0.0271,0.0331,0.038,0.0418,0.0488,0.0515,0.0589,0.0661,0.0711,0.0754,0.0839,0.0894,0.0928,0.0943,0.1001,0.0987,0.099,0.0938,0.0892,0.0878,0.0872,0.0948,0.0949,0.095,0.095,0,0.0216,0.0231,0.0278,0.0325,0.0364,0.0383,0.0424,0.0475,0.052,0.0627,0.0644,0.0741,0.0825,0.0852,0.0881,0.0895,0.0879,0.0837,0.0848,0.0856,0.0782,0.0705,0.0717,0,0,0,0,0,0.0239,0.0253,0.0277,0.0306,0.0328,0.0355,0.0418,0.0455,0.0539,0.0548,0.059,0.065,0.0706,0.0761,0.0756,0.0842,0.0886,0.0831,0.0844,0.0912,0.092,0.0842,0,0,0,0,0,0,0.0243,0.0277,0.0275,0.0282,0.0289,0.0312,0.0345,0.0397,0.0407,0.0493,0.0533,0.0591,0.0666,0.0699,0.0737,0.0753,0.0742,0.0889,0.0886,0.0908,0.0915,0.0921,0.0843,0,0,0,0,0]},{"header":{"parameterUnit":"m.s-1","parameterCategory":2,"la1":30.2991,"la2":30.254,"lo1":-89.0895,"lo2":-89.0444,"dy":0.0017,"dx":0.0017,"nx":28,"ny":28,"refTime":"2024-03-21T03:00:00:Z","depth":"4","parameterNumber":3,"parameterNumberName":"V-component_of_CURRENTS"},"data":[0,0,0,0,0,0,0,0,0,0,0,0,0,0,0,0,0,0,0,0,0,0,0,0,0,0,0,0,0,0,0,0,0,0,0,0,0,0,0,0,0,0,0,0,0,0,0,0,0,0,0,0,0,0,0,0,0,0,0.0377,0.0377,0,0.0379,0.0379,0.0379,0.0365,0.0365,0.0365,0.0364,0.0353,0.0353,0.0352,0,0,0,0,0,0,0,0,0,0,0,0,0,0.0377,0.0377,0.0377,0.0377,0.0377,0.0379,0.0379,0.0379,0.0365,0.0365,0.0365,0.0364,0.0353,0.0353,0.0352,0,0,0,0,0,0,0,0,0,0,0,0,0,0.0376,0.0377,0.0377,0.0372,0.0372,0.0379,0.0379,0.0378,0.0365,0.0365,0.0364,0.0364,0.0353,0.0353,0.0352,0.0359,0,0,0.0352,0.0352,0,0,0,0,0,0,0,0,0.0376,0.0376,0.0373,0.0372,0.0372,0.0373,0.0374,0.0372,0.0365,0.0366,0.0364,0.0364,0.0359,0.0359,0.0358,0.0358,0.0358,0.0352,0.0352,0.0352,0.0352,0,0,0,0,0,0,0,0.0376,0.0376,0.0376,0.0373,0.0372,0.0375,0.0374,0.0374,0.0363,0.0366,0.0365,0.0368,0.0359,0.0358,0.0357,0.0358,0.0352,0.0352,0.0352,0.0352,0.0369,0.0369,0,0,0,0,0,0,0.0379,0.0376,0.0376,0.0376,0.0375,0.0375,0.0374,0.0372,0.0364,0.0363,0.0368,0.0367,0.0358,0.0358,0.0357,0.0376,0.0352,0.0352,0.0352,0.0368,0.0369,0.0369,0,0,0,0,0,0,0.0379,0.0379,0.0376,0.0378,0.0378,0.0376,0.0373,0.0372,0.0376,0.0366,0.0364,0.0374,0.0358,0.0357,0.0363,0.0375,0.0352,0.0352,0.0367,0.0368,0.0369,0.0407,0,0,0,0,0,0,0.0379,0.0378,0.038,0.0378,0.0378,0.0382,0.0373,0.0372,0.0378,0.0377,0.037,0.0368,0.0358,0.0364,0.0363,0.0375,0.0351,0.0367,0.0368,0.0369,0.0405,0.0409,0.0413,0,0,0,0,0,0.0378,0.038,0.038,0.038,0.0379,0.0382,0.0383,0.0379,0.0379,0.0381,0.038,0.0369,0.0369,0.0364,0.0364,0.0375,0.0366,0.0368,0.0369,0.0404,0.0408,0.0413,0,0,0,0,0,0,0.0381,0.0379,0.0378,0.0379,0.0382,0.0381,0.0386,0.0385,0.0387,0.0388,0.0378,0.0376,0.0387,0.0376,0.037,0.0382,0.0365,0.0366,0.0392,0.0397,0.04,0.0399,0.0351,0,0,0,0,0,0.0383,0.0382,0.0383,0.0385,0.0389,0.0391,0.0394,0.0392,0.0393,0.0393,0.039,0.0387,0.0391,0.039,0.0389,0.0396,0.0374,0.0402,0.0406,0.0409,0.0408,0.0377,0.0378,0.0373,0.0373,0.0373,0,0,0.0388,0.0384,0.0386,0.0386,0.039,0.0402,0.0391,0.0399,0.041,0.0393,0.0407,0.0403,0.0397,0.0406,0.0409,0.0398,0.0402,0.0411,0.0413,0.041,0.0378,0.0379,0.0379,0.0374,0.0374,0.0374,0,0,0.0396,0.0393,0.0398,0.0403,0.0409,0.0413,0.0418,0.0422,0.0424,0.0437,0.043,0.043,0.0436,0.0429,0.0429,0.0451,0.0425,0.0455,0.0469,0.044,0.044,0.044,0.0423,0.0421,0.0453,0.0453,0.0453,0,0.0398,0.0409,0.0402,0.041,0.0421,0.0422,0.0439,0.0443,0.0447,0.0451,0.0446,0.0449,0.0446,0.0451,0.0462,0.0459,0.0441,0.0455,0.0444,0.0443,0.0442,0.0425,0.0422,0.0455,0.0455,0.0455,0.0454,0,0.0416,0.0426,0.0432,0.0444,0.0453,0.0467,0.0475,0.0484,0.049,0.049,0.0496,0.0485,0.0483,0.0485,0.0485,0.048,0.0471,0.0455,0.0432,0.0445,0.0426,0.0422,0.0458,0.0457,0.0457,0.0456,0,0,0.0415,0.0439,0.0444,0.0454,0.0473,0.048,0.0505,0.0521,0.0531,0.0529,0.0536,0.0539,0.0525,0.0523,0.0512,0.049,0.0476,0.0474,0.0472,0.0456,0.042,0.0409,0.0403,0.0456,0.0456,0.0455,0.0414,0,0.0434,0.0463,0.047,0.05,0.0517,0.0524,0.0546,0.0557,0.0562,0.0566,0.055,0.0556,0.0542,0.0543,0.0517,0.0492,0.0466,0.0489,0.0411,0.0409,0.0395,0.0398,0.0453,0.0411,0.041,0.0409,0.0409,0,0.0452,0.047,0.051,0.0528,0.0537,0.0555,0.0582,0.06,0.0607,0.0608,0.06,0.0585,0.0571,0.0548,0.0493,0.051,0.0469,0.0438,0.0435,0.0406,0.039,0.0392,0.0401,0.0402,0.0402,0.0403,0.0403,0,0.0462,0.0492,0.0529,0.0538,0.0566,0.0583,0.0601,0.0617,0.0636,0.0638,0.0645,0.0612,0.061,0.0546,0.0496,0.0493,0.0424,0.0408,0.0353,0.0352,0.0357,0.0358,0.035,0.035,0.035,0.035,0.035,0,0.0474,0.0497,0.0537,0.0554,0.059,0.0602,0.0637,0.0647,0.0667,0.0688,0.0669,0.0668,0.0609,0.0565,0.05,0.0423,0.0424,0.0355,0.0337,0.0377,0.038,0.0355,0.0356,0.0348,0.0349,0.0349,0.0349,0,0.0475,0.0506,0.054,0.058,0.0598,0.0624,0.067,0.069,0.0709,0.0736,0.0742,0.0722,0.0672,0.06,0.0508,0.0442,0.0359,0.0325,0.0387,0.0374,0.0305,0.0308,0.0258,0.0257,0.0256,0.0256,0.0255,0,0.0476,0.05,0.0562,0.0591,0.0612,0.0656,0.0692,0.0719,0.0741,0.0763,0.0772,0.0745,0.0717,0.0582,0.0503,0.0374,0.0348,0.03,0.0287,0.0306,0.0293,0.0298,0.0303,0.0254,0.0254,0.0254,0.0254,0,0.0468,0.05,0.0533,0.0607,0.065,0.0692,0.0737,0.075,0.0783,0.0803,0.0788,0.0727,0.0673,0.0577,0.0486,0.0387,0.0328,0.0292,0.0292,0.028,0.03,0.029,0.0296,0.0251,0.0252,0.0252,0.0252,0,0.0464,0.0487,0.0549,0.0604,0.0667,0.0707,0.0728,0.0752,0.0775,0.079,0.0786,0.0731,0.0712,0.0584,0.0494,0.0407,0.0373,0.0321,0.0319,0.0321,0.0349,0.0385,0.0344,0,0,0,0,0,0.0459,0.0487,0.0539,0.0599,0.0664,0.0697,0.0752,0.0769,0.0795,0.0783,0.0783,0.0728,0.0611,0.0569,0.0477,0.0472,0.0355,0.0358,0.0292,0.0238,0.0241,0.0262,0,0,0,0,0,0,0.0454,0.0505,0.0531,0.059,0.0625,0.069,0.072,0.0738,0.0728,0.0746,0.069,0.068,0.0574,0.066,0.0467,0.0444,0.0382,0.0317,0.0314,0.0237,0.0239,0.0241,0.0264,0,0,0,0,0]}]]